Location: Unspecified
(0.0000°N, 0.0000°E)
Time: 22:29:53
(UTC-05:00)

Okean 3 - Visible Passes

Search period start: 02 June 2020 00:00
Search period end: 12 June 2020 00:00
Orbit: 577 x 600 km, 82.5° (Epoch: 02 June)

Date Brightness Start Highest point End Pass type
(mag) Time Alt. Az. Time Alt. Az. Time Alt. Az.
02 Jun 5.3 15:06:44 26° N 15:06:44 26° N 15:08:40 10° N visible
03 Jun 5.1 15:13:04 33° WNW 15:13:04 33° WNW 15:16:11 10° NNW visible
04 Jun 5.3 13:42:46 13° E 13:43:05 13° E 13:44:59 10° ENE visible
04 Jun 5.7 15:19:10 21° WSW 15:20:00 22° W 15:23:21 10° NW visible
05 Jun 4.7 13:48:33 14° SE 13:50:52 21° E 13:54:08 10° NE visible
05 Jun 6.5 15:25:42 10° WSW 15:27:48 13° W 15:29:54 10° WNW visible
06 Jun 4.1 13:54:44 10° SSE 13:58:40 35° E 14:02:35 10° NNE visible
07 Jun 3.4 14:02:13 10° S 14:06:27 62° E 14:10:41 10° NNE visible
08 Jun 3.6 14:09:57 10° S 14:14:15 76° W 14:18:31 10° N visible
09 Jun 4.7 14:17:58 10° SSW 14:22:02 43° W 14:26:06 10° NNW visible
10 Jun 5.7 14:26:17 10° SW 14:29:50 25° W 14:33:23 10° NNW visible
11 Jun 6.5 14:35:05 10° WSW 14:37:38 15° W 14:40:10 10° NW visible
